Location: Unspecified
(0.0000°N, 0.0000°E)
Time: 02:55:15
(UTC+00:00)

NTS 1 - Pass Details

Date: 21 May 2026
Orbit: 13477 x 13743 km, 124.9° (Epoch: 9 June)

Event Time Altitude Azimuth Distance (km) Brightness Sun altitude
Exits shadow 20:56:22 27° 92° (E) 16,224 ? -41.5°
Maximum altitude 21:35:31 49° 37° (NE) 14,637 ? -49.9°
Drops below altitude 10° 22:32:29 10° 333° (NNW) 17,717 ? -61.1°
Sets 22:43:46 0° 329° (NNW) 18,798 ? -63.0°
